{"data":{"norad_id":62731,"intl_designator":"2025-013C","name":"2025-013C","alt_names":[],"object_type":"PAYLOAD","status":"ACTIVE","operator":null,"country":"PRC","launch_date":"2025-01-20","launch_site_code":"JSC","launch_vehicle":null,"mission":null,"orbit_class":"UNKNOWN","rcs_meters":null,"size_class":null,"mass_kg":null,"dimensions":null,"purposes":[],"wikipedia_slug":null,"has_3d_model":false,"image_url":null,"decayed_at":null,"tle_current":{"epoch":"2026-05-25T05:16:07.137120Z","epoch_age_seconds":59380,"freshness":"FRESH","line1":"1 62731U 25013C   26145.21952705  .00003636  00000+0  22037-3 0  9993","line2":"2 62731  97.6500 314.2990 0015720  92.2825 268.0205 15.11114090 73869","mean_motion":15.1111409,"eccentricity":0.001572,"inclination_deg":97.65,"raan_deg":314.299,"arg_perigee_deg":92.2825,"mean_anomaly_deg":268.0205,"bstar":0.00022037,"rev_number":7386,"period_min":95.293929791893,"perigee_km":521.93712949243,"apogee_km":543.66511895499,"semimajor_km":6910.9381242237,"source":"CELESTRAK","updated_at":"2026-05-25T13:38:03.211353Z"}}}